BAW4A EGLL-EYVI

Flight info

Callsign BAW4A
Flight time 2h 21m
Altitude 41000
Route BPK6J BPK Q295 BRAIN M197 REDFA L620 TACHA DCT OSN L980 ROBEG DCT HLZ DCT ALUKA DCT TUPUR L29 GRUDA N858 BARGU DCT BOKSU DCT IRKAL IRKAL2A
Aircraft A333/H-SDE3GHIJ2J3J5M1RVWXY/LB2D1

Departure

Time 2026-04-30 11:51
Airport London Heathrow Airport (EGLL)

Arrival

Time 2026-04-30 14:13
Airport Vilnius International Airport (EYVI)
Time Latitude Longitude Altitude Speed Heading
2026-04-30 11:26 51.46980 -0.48014 93 ft 0 kts 269°
2026-04-30 11:38 51.46980 -0.48005 93 ft 3 kts 267°
2026-04-30 11:38 51.46981 -0.47975 93 ft 3 kts 267°
2026-04-30 11:39 51.46982 -0.47944 94 ft 3 kts 257°
2026-04-30 11:39 51.46989 -0.47915 94 ft 3 kts 225°
2026-04-30 11:39 51.47005 -0.47898 92 ft 3 kts 178°
2026-04-30 11:39 51.47009 -0.47899 94 ft 0 kts 176°
2026-04-30 11:43 51.47007 -0.47898 94 ft 2 kts 176°
2026-04-30 11:43 51.46984 -0.47891 94 ft 5 kts 167°
2026-04-30 11:43 51.46940 -0.47875 95 ft 8 kts 168°
2026-04-30 11:43 51.46874 -0.47868 92 ft 11 kts 180°
2026-04-30 11:44 51.46794 -0.47871 95 ft 11 kts 187°
2026-04-30 11:44 51.46750 -0.47951 97 ft 10 kts 255°
2026-04-30 11:44 51.46748 -0.47965 97 ft 0 kts 259°
2026-04-30 11:44 51.46747 -0.47972 97 ft 1 kts 259°
2026-04-30 11:45 51.46747 -0.47975 96 ft 0 kts 261°
2026-04-30 11:46 51.46747 -0.47976 96 ft 0 kts 261°
2026-04-30 11:46 51.46746 -0.47989 94 ft 2 kts 263°
2026-04-30 11:46 51.46744 -0.48023 94 ft 4 kts 265°
2026-04-30 11:46 51.46743 -0.48069 96 ft 4 kts 269°
2026-04-30 11:47 51.46742 -0.48119 94 ft 4 kts 265°
2026-04-30 11:47 51.46734 -0.48161 95 ft 4 kts 243°
2026-04-30 11:47 51.46712 -0.48194 99 ft 5 kts 211°
2026-04-30 11:47 51.46666 -0.48212 98 ft 8 kts 185°
2026-04-30 11:48 51.46637 -0.48214 97 ft 0 kts 181°
2026-04-30 11:49 51.46633 -0.48214 97 ft 2 kts 181°
2026-04-30 11:49 51.46603 -0.48216 97 ft 6 kts 181°
2026-04-30 11:49 51.46548 -0.48217 97 ft 9 kts 180°
2026-04-30 11:49 51.46489 -0.48182 100 ft 9 kts 122°
2026-04-30 11:50 51.46482 -0.48135 99 ft 0 kts 94°
2026-04-30 11:50 51.46481 -0.48115 96 ft 10 kts 94°
2026-04-30 11:50 51.46479 -0.47665 91 ft 73 kts 89°
2026-04-30 11:50 51.46485 -0.46518 100 ft 130 kts 89°
2026-04-30 11:51 51.46476 -0.44857 422 ft 158 kts 92°
2026-04-30 11:51 51.46488 -0.43062 1402 ft 159 kts 87°
2026-04-30 11:51 51.46744 -0.41336 2319 ft 166 kts 69°
2026-04-30 11:51 51.47481 -0.39691 2750 ft 198 kts 54°
2026-04-30 11:52 51.48505 -0.37954 3045 ft 232 kts 50°
2026-04-30 11:52 51.49698 -0.36034 3585 ft 249 kts 51°
2026-04-30 11:52 51.50933 -0.34015 4364 ft 256 kts 54°
2026-04-30 11:52 51.51884 -0.31637 5162 ft 253 kts 72°
2026-04-30 11:53 51.52529 -0.28992 5729 ft 257 kts 76°
2026-04-30 11:53 51.53119 -0.26240 6467 ft 264 kts 76°
2026-04-30 11:53 51.53775 -0.23496 7318 ft 272 kts 68°
2026-04-30 11:53 51.54977 -0.21098 8262 ft 284 kts 42°
2026-04-30 11:54 51.56724 -0.19533 9212 ft 291 kts 29°
2026-04-30 11:54 51.58610 -0.18281 10217 ft 296 kts 24°
2026-04-30 11:54 51.60613 -0.17267 10829 ft 311 kts 20°
2026-04-30 11:54 51.62695 -0.16009 11149 ft 329 kts 32°
2026-04-30 11:55 51.64525 -0.13701 11416 ft 342 kts 54°
2026-04-30 11:55 51.65834 -0.10425 11774 ft 354 kts 67°
2026-04-30 11:55 51.66791 -0.06739 12423 ft 359 kts 73°
2026-04-30 11:55 51.67558 -0.02884 13136 ft 363 kts 77°
2026-04-30 11:56 51.68251 0.01053 13828 ft 367 kts 77°
2026-04-30 11:56 51.68941 0.05051 14502 ft 372 kts 77°
2026-04-30 11:56 51.69660 0.09088 15163 ft 377 kts 77°
2026-04-30 11:56 51.70414 0.13158 15828 ft 381 kts 76°
2026-04-30 11:57 51.71200 0.17273 16478 ft 386 kts 76°
2026-04-30 11:57 51.72008 0.21423 17127 ft 390 kts 76°
2026-04-30 11:57 51.72830 0.25611 17772 ft 394 kts 76°
2026-04-30 11:57 51.73664 0.29853 18400 ft 399 kts 76°
2026-04-30 11:58 51.74506 0.34143 18977 ft 402 kts 76°
2026-04-30 11:58 51.75348 0.38447 19574 ft 404 kts 76°
2026-04-30 11:58 51.76194 0.42783 20171 ft 406 kts 76°
2026-04-30 11:58 51.77041 0.47146 20739 ft 408 kts 76°
2026-04-30 11:59 51.77891 0.51536 21280 ft 411 kts 76°
2026-04-30 11:59 51.78745 0.55954 21837 ft 413 kts 76°
2026-04-30 11:59 51.79601 0.60402 22392 ft 416 kts 76°
2026-04-30 11:59 51.80460 0.64874 22933 ft 418 kts 76°
2026-04-30 12:00 51.81321 0.69370 23427 ft 421 kts 76°
2026-04-30 12:00 51.82188 0.73910 23915 ft 424 kts 76°
2026-04-30 12:00 51.83058 0.78470 24356 ft 426 kts 76°
2026-04-30 12:00 51.83927 0.83071 24801 ft 428 kts 76°
2026-04-30 12:01 51.84782 0.87691 25214 ft 431 kts 77°
2026-04-30 12:01 51.85633 0.92357 25633 ft 434 kts 77°
2026-04-30 12:01 51.86483 0.97048 26054 ft 436 kts 77°
2026-04-30 12:01 51.87336 1.01784 26449 ft 439 kts 76°
2026-04-30 12:02 51.88192 1.06533 26867 ft 441 kts 76°
2026-04-30 12:02 51.89053 1.11311 27285 ft 444 kts 76°
2026-04-30 12:02 51.89920 1.16128 27700 ft 446 kts 77°
2026-04-30 12:02 51.90787 1.20954 28116 ft 448 kts 77°
2026-04-30 12:03 51.91659 1.25823 28520 ft 451 kts 77°
2026-04-30 12:03 51.93408 1.35628 29300 ft 456 kts 77°
2026-04-30 12:03 51.94286 1.40571 29700 ft 458 kts 77°
2026-04-30 12:04 51.95168 1.45544 30080 ft 460 kts 77°
2026-04-30 12:04 51.96051 1.50546 30414 ft 463 kts 77°
2026-04-30 12:04 51.96927 1.55524 30739 ft 465 kts 77°
2026-04-30 12:04 51.97812 1.60553 31210 ft 463 kts 77°
2026-04-30 12:05 51.98692 1.65567 31688 ft 461 kts 77°
2026-04-30 12:05 51.99545 1.70571 32135 ft 460 kts 78°
2026-04-30 12:05 52.00350 1.75583 32576 ft 458 kts 78°
2026-04-30 12:05 52.01130 1.80603 32997 ft 457 kts 79°
2026-04-30 12:06 52.01894 1.85597 33438 ft 456 kts 79°
2026-04-30 12:06 52.02654 1.90588 33859 ft 455 kts 79°
2026-04-30 12:06 52.03415 1.95585 34247 ft 455 kts 79°
2026-04-30 12:06 52.04175 2.00566 34579 ft 455 kts 79°
2026-04-30 12:07 52.04935 2.05546 34924 ft 454 kts 79°
2026-04-30 12:07 52.05695 2.10518 35255 ft 453 kts 79°
2026-04-30 12:07 52.06453 2.15496 35573 ft 453 kts 79°
2026-04-30 12:07 52.07209 2.20469 35890 ft 453 kts 79°
2026-04-30 12:08 52.07962 2.25435 36194 ft 453 kts 79°
2026-04-30 12:08 52.08711 2.30395 36488 ft 452 kts 79°
2026-04-30 12:08 52.09460 2.35371 36779 ft 452 kts 79°
2026-04-30 12:08 52.10205 2.40338 37068 ft 452 kts 79°
2026-04-30 12:09 52.10949 2.45311 37343 ft 452 kts 79°
2026-04-30 12:09 52.11722 2.50260 37726 ft 450 kts 77°
2026-04-30 12:09 52.12589 2.55140 38084 ft 449 kts 75°
2026-04-30 12:09 52.13511 2.59981 38376 ft 449 kts 75°
2026-04-30 12:10 52.14456 2.64820 38628 ft 449 kts 75°
2026-04-30 12:10 52.15402 2.69654 38885 ft 448 kts 75°
2026-04-30 12:10 52.16342 2.74500 39129 ft 448 kts 75°
2026-04-30 12:10 52.17272 2.79344 39299 ft 449 kts 75°
2026-04-30 12:11 52.18195 2.84209 39466 ft 449 kts 75°
2026-04-30 12:11 52.19111 2.89070 39616 ft 450 kts 75°
2026-04-30 12:11 52.20028 2.93962 39779 ft 451 kts 75°
2026-04-30 12:11 52.20940 2.98847 39973 ft 450 kts 75°
2026-04-30 12:12 52.21849 3.03727 40196 ft 449 kts 75°
2026-04-30 12:12 52.22755 3.08605 40355 ft 450 kts 75°
2026-04-30 12:12 52.23661 3.13496 40499 ft 451 kts 75°
2026-04-30 12:12 52.24563 3.18384 40679 ft 451 kts 75°
2026-04-30 12:13 52.25263 3.23368 40830 ft 450 kts 82°
2026-04-30 12:13 52.25582 3.28365 41000 ft 449 kts 87°
2026-04-30 12:13 52.25733 3.33465 41118 ft 450 kts 89°
2026-04-30 12:13 52.25814 3.38556 41288 ft 449 kts 89°
2026-04-30 12:14 52.25858 3.43670 41345 ft 452 kts 90°
2026-04-30 12:14 52.25909 3.53947 41347 ft 453 kts 90°
2026-04-30 12:15 52.25963 3.64228 41339 ft 453 kts 90°
2026-04-30 12:15 52.26023 3.74498 41342 ft 453 kts 90°
2026-04-30 12:16 52.26081 3.84781 41342 ft 453 kts 90°
2026-04-30 12:16 52.26130 3.95047 41342 ft 453 kts 90°
2026-04-30 12:17 52.26185 4.10451 41341 ft 451 kts 90°
2026-04-30 12:17 52.26211 4.20686 41342 ft 451 kts 90°
2026-04-30 12:18 52.26227 4.30850 41340 ft 450 kts 90°
2026-04-30 12:18 52.26235 4.41088 41347 ft 451 kts 90°
2026-04-30 12:19 52.26234 4.51322 41350 ft 451 kts 90°
2026-04-30 12:19 52.26225 4.61555 41352 ft 451 kts 90°
2026-04-30 12:20 52.26206 4.71801 41376 ft 451 kts 90°
2026-04-30 12:20 52.26178 4.82038 41373 ft 451 kts 90°
2026-04-30 12:21 52.26142 4.92289 41370 ft 451 kts 90°
2026-04-30 12:21 52.26096 5.02521 41370 ft 450 kts 90°
2026-04-30 12:22 52.26043 5.12724 41365 ft 450 kts 90°
2026-04-30 12:22 52.25980 5.22921 41376 ft 449 kts 90°
2026-04-30 12:23 52.25909 5.33122 41378 ft 449 kts 90°
2026-04-30 12:23 52.25829 5.43309 41383 ft 448 kts 90°
2026-04-30 12:24 52.25739 5.53498 41388 ft 450 kts 90°
2026-04-30 12:24 52.25642 5.63664 41376 ft 451 kts 90°
2026-04-30 12:25 52.25535 5.73884 41378 ft 451 kts 90°
2026-04-30 12:25 52.25419 5.84099 41377 ft 450 kts 91°
2026-04-30 12:26 52.25295 5.94327 41391 ft 451 kts 90°
2026-04-30 12:26 52.25161 6.04540 41384 ft 449 kts 90°
2026-04-30 12:27 52.25020 6.14710 41393 ft 449 kts 90°
2026-04-30 12:27 52.24870 6.24892 41393 ft 448 kts 90°
2026-04-30 12:28 52.24738 6.33350 41398 ft 448 kts 90°
2026-04-30 12:28 52.24573 6.43514 41411 ft 448 kts 90°
2026-04-30 12:29 52.24397 6.53687 41411 ft 449 kts 90°
2026-04-30 12:29 52.24212 6.63874 41407 ft 449 kts 90°
2026-04-30 12:30 52.24020 6.74065 41414 ft 449 kts 90°
2026-04-30 12:30 52.23819 6.84244 41415 ft 449 kts 90°
2026-04-30 12:31 52.23609 6.94439 41421 ft 450 kts 90°
2026-04-30 12:31 52.23389 7.04639 41408 ft 451 kts 89°
2026-04-30 12:32 52.23161 7.14858 41424 ft 451 kts 90°
2026-04-30 12:32 52.22922 7.25087 41411 ft 451 kts 90°
2026-04-30 12:33 52.22676 7.35304 41430 ft 451 kts 90°
2026-04-30 12:33 52.22421 7.45524 41423 ft 451 kts 90°
2026-04-30 12:34 52.22156 7.55758 41427 ft 452 kts 90°
2026-04-30 12:34 52.21882 7.66021 41432 ft 453 kts 91°
2026-04-30 12:35 52.21601 7.76212 41426 ft 453 kts 90°
2026-04-30 12:35 52.21309 7.86465 41428 ft 453 kts 91°
2026-04-30 12:36 52.21009 7.96709 41432 ft 453 kts 90°
2026-04-30 12:36 52.20699 8.06976 41438 ft 453 kts 90°
2026-04-30 12:37 52.20380 8.17253 41451 ft 453 kts 90°
2026-04-30 12:37 52.20102 8.27516 41447 ft 452 kts 86°
2026-04-30 12:38 52.20358 8.37744 41450 ft 452 kts 85°
2026-04-30 12:38 52.20732 8.47971 41455 ft 452 kts 84°
2026-04-30 12:39 52.21117 8.58208 41453 ft 452 kts 84°
2026-04-30 12:39 52.21485 8.68448 41450 ft 452 kts 84°
2026-04-30 12:40 52.21837 8.78684 41454 ft 452 kts 84°
2026-04-30 12:40 52.22178 8.88931 41457 ft 452 kts 84°
2026-04-30 12:41 52.22511 8.99176 41455 ft 453 kts 84°
2026-04-30 12:41 52.22835 9.09437 41456 ft 453 kts 84°
2026-04-30 12:42 52.23151 9.19706 41454 ft 453 kts 84°
2026-04-30 12:42 52.23673 9.29856 41457 ft 451 kts 80°
2026-04-30 12:43 52.24536 9.39993 41472 ft 451 kts 79°
2026-04-30 12:43 52.25453 9.50110 41472 ft 451 kts 79°
2026-04-30 12:44 52.26370 9.60246 41476 ft 451 kts 79°
2026-04-30 12:44 52.27272 9.70390 41477 ft 451 kts 79°
2026-04-30 12:45 52.28160 9.80530 41476 ft 451 kts 79°
2026-04-30 12:45 52.29038 9.90674 41476 ft 451 kts 79°
2026-04-30 12:46 52.29907 10.00823 41475 ft 452 kts 79°
2026-04-30 12:46 52.30770 10.10989 41473 ft 452 kts 79°
2026-04-30 12:47 52.31624 10.21161 41475 ft 452 kts 79°
2026-04-30 12:47 52.32469 10.31333 41481 ft 452 kts 79°
2026-04-30 12:48 52.33305 10.41519 41483 ft 452 kts 79°
2026-04-30 12:48 52.34133 10.51706 41482 ft 452 kts 79°
2026-04-30 12:49 52.34953 10.61901 41482 ft 452 kts 79°
2026-04-30 12:49 52.35757 10.72030 41482 ft 452 kts 79°
2026-04-30 12:50 52.36859 10.82190 41481 ft 449 kts 73°
2026-04-30 12:50 52.38425 10.92013 41480 ft 449 kts 72°
2026-04-30 12:51 52.40083 11.01868 41487 ft 449 kts 71°
2026-04-30 12:51 52.41744 11.11721 41480 ft 449 kts 71°
2026-04-30 12:52 52.43387 11.21587 41482 ft 449 kts 72°
2026-04-30 12:52 52.45014 11.31451 41479 ft 449 kts 72°
2026-04-30 12:53 52.46636 11.41355 41486 ft 449 kts 72°
2026-04-30 12:53 52.48248 11.51251 41484 ft 449 kts 72°
2026-04-30 12:54 52.49851 11.61156 41481 ft 449 kts 72°
2026-04-30 12:54 52.51446 11.71061 41479 ft 449 kts 72°
2026-04-30 12:55 52.53026 11.80929 41476 ft 449 kts 72°
2026-04-30 12:55 52.54607 11.90865 41479 ft 449 kts 72°
2026-04-30 12:56 52.56176 12.00789 41476 ft 449 kts 72°
2026-04-30 12:56 52.57739 12.10732 41486 ft 449 kts 72°
2026-04-30 12:57 52.59290 12.20659 41475 ft 448 kts 72°
2026-04-30 12:57 52.60833 12.30593 41475 ft 448 kts 72°
2026-04-30 12:58 52.62359 12.40474 41469 ft 448 kts 72°
2026-04-30 12:58 52.63884 12.50412 41474 ft 448 kts 72°
2026-04-30 12:59 52.65399 12.60349 41466 ft 448 kts 72°
2026-04-30 12:59 52.66906 12.70299 41461 ft 447 kts 72°
2026-04-30 13:00 52.68400 12.80221 41467 ft 446 kts 72°
2026-04-30 13:00 52.69886 12.90148 41461 ft 446 kts 72°
2026-04-30 13:01 52.71362 13.00068 41463 ft 446 kts 72°
2026-04-30 13:01 52.72834 13.10032 41461 ft 446 kts 72°
2026-04-30 13:02 52.74295 13.19978 41475 ft 446 kts 72°
2026-04-30 13:02 52.75745 13.29922 41459 ft 444 kts 72°
2026-04-30 13:03 52.77182 13.39831 41453 ft 444 kts 72°
2026-04-30 13:03 52.78614 13.49770 41454 ft 444 kts 72°
2026-04-30 13:04 52.80037 13.59708 41458 ft 444 kts 73°
2026-04-30 13:04 52.81450 13.69647 41451 ft 444 kts 73°
2026-04-30 13:05 52.82847 13.79534 41457 ft 444 kts 73°
2026-04-30 13:06 52.84934 13.94432 41451 ft 443 kts 73°
2026-04-30 13:06 52.86315 14.04368 41448 ft 443 kts 73°
2026-04-30 13:07 52.87688 14.14311 41448 ft 443 kts 73°
2026-04-30 13:07 52.89053 14.24267 41446 ft 443 kts 73°
2026-04-30 13:08 52.90451 14.34191 41439 ft 441 kts 71°
2026-04-30 13:08 52.92002 14.44008 41451 ft 440 kts 71°
2026-04-30 13:09 52.93582 14.53798 41441 ft 440 kts 71°
2026-04-30 13:09 52.95146 14.63626 41448 ft 440 kts 71°
2026-04-30 13:10 52.96686 14.73448 41434 ft 440 kts 71°
2026-04-30 13:10 52.98213 14.83278 41446 ft 440 kts 71°
2026-04-30 13:11 52.99733 14.93121 41430 ft 440 kts 71°
2026-04-30 13:11 53.00991 15.01305 41428 ft 440 kts 71°
2026-04-30 13:12 53.02496 15.11159 41440 ft 440 kts 71°
2026-04-30 13:12 53.03994 15.21018 41429 ft 440 kts 71°
2026-04-30 13:13 53.06223 15.35806 41422 ft 440 kts 72°
2026-04-30 13:14 53.08437 15.50630 41429 ft 440 kts 72°
2026-04-30 13:14 53.10630 15.65450 41430 ft 440 kts 72°
2026-04-30 13:15 53.12805 15.80293 41422 ft 440 kts 72°
2026-04-30 13:16 53.14248 15.90201 41421 ft 440 kts 72°
2026-04-30 13:16 53.15684 16.00106 41419 ft 440 kts 72°
2026-04-30 13:17 53.17820 16.14974 41412 ft 440 kts 72°
2026-04-30 13:18 53.19936 16.29846 41415 ft 440 kts 72°
2026-04-30 13:18 53.22036 16.44740 41409 ft 440 kts 72°
2026-04-30 13:19 53.23424 16.54674 41405 ft 440 kts 72°
2026-04-30 13:19 53.24805 16.64620 41411 ft 440 kts 73°
2026-04-30 13:20 53.26174 16.74575 41406 ft 440 kts 73°
2026-04-30 13:20 53.27528 16.84499 41402 ft 440 kts 73°
2026-04-30 13:21 53.28887 16.94533 41398 ft 440 kts 73°
2026-04-30 13:22 53.30890 17.09456 41400 ft 440 kts 73°
2026-04-30 13:22 53.32882 17.24446 41401 ft 440 kts 73°
2026-04-30 13:23 53.34858 17.39474 41398 ft 441 kts 73°
2026-04-30 13:24 53.37467 17.59566 41398 ft 441 kts 73°
2026-04-30 13:25 53.40043 17.79682 41420 ft 442 kts 73°
2026-04-30 13:26 53.43215 18.04869 41402 ft 441 kts 74°
2026-04-30 13:28 53.46333 18.30072 41401 ft 441 kts 74°
2026-04-30 13:28 53.48170 18.45149 41398 ft 441 kts 74°
2026-04-30 13:29 53.50600 18.65356 41396 ft 441 kts 74°
2026-04-30 13:31 53.54539 18.90092 41397 ft 436 kts 67°
2026-04-30 13:32 53.59465 19.14250 41401 ft 437 kts 67°
2026-04-30 13:33 53.63363 19.33664 41404 ft 437 kts 67°
2026-04-30 13:34 53.66260 19.48235 41399 ft 437 kts 67°
2026-04-30 13:35 53.70100 19.67716 41408 ft 438 kts 67°
2026-04-30 13:36 53.73906 19.87231 41407 ft 439 kts 68°
2026-04-30 13:36 53.76747 20.01951 41402 ft 439 kts 68°
2026-04-30 13:37 53.79572 20.16703 41390 ft 439 kts 68°
2026-04-30 13:38 53.82379 20.31462 41403 ft 440 kts 68°
2026-04-30 13:39 53.86115 20.51294 41395 ft 442 kts 68°
2026-04-30 13:40 53.88898 20.66187 41390 ft 442 kts 68°
2026-04-30 13:40 53.90745 20.76134 41390 ft 442 kts 68°
2026-04-30 13:41 53.92585 20.86096 41399 ft 442 kts 68°
2026-04-30 13:41 53.94404 20.95993 41403 ft 442 kts 68°
2026-04-30 13:42 53.96237 21.06026 41401 ft 442 kts 68°
2026-04-30 13:42 53.98957 21.21011 41402 ft 442 kts 69°
2026-04-30 13:43 54.00749 21.30944 41440 ft 442 kts 69°
2026-04-30 13:43 54.01646 21.35939 41271 ft 441 kts 69°
2026-04-30 13:43 54.02539 21.40922 41040 ft 440 kts 69°
2026-04-30 13:44 54.03428 21.45896 40786 ft 439 kts 69°
2026-04-30 13:44 54.04313 21.50860 40544 ft 438 kts 69°
2026-04-30 13:44 54.05195 21.55822 40316 ft 437 kts 68°
2026-04-30 13:44 54.06073 21.60767 40108 ft 437 kts 69°
2026-04-30 13:45 54.07823 21.70671 39650 ft 436 kts 69°
2026-04-30 13:45 54.08690 21.75602 39425 ft 435 kts 69°
2026-04-30 13:45 54.09556 21.80539 39205 ft 434 kts 69°
2026-04-30 13:46 54.10415 21.85456 38927 ft 430 kts 68°
2026-04-30 13:46 54.11262 21.90319 38462 ft 426 kts 68°
2026-04-30 13:46 54.12099 21.95144 37961 ft 423 kts 68°
2026-04-30 13:46 54.12931 21.99947 37433 ft 420 kts 68°
2026-04-30 13:47 54.13754 22.04705 36914 ft 416 kts 67°
2026-04-30 13:47 54.14568 22.09423 36386 ft 413 kts 67°
2026-04-30 13:47 54.15375 22.14116 35817 ft 411 kts 67°
2026-04-30 13:47 54.16167 22.18725 35225 ft 409 kts 66°
2026-04-30 13:48 54.16965 22.23383 34588 ft 407 kts 66°
2026-04-30 13:48 54.17753 22.27999 33962 ft 404 kts 66°
2026-04-30 13:48 54.18536 22.32597 33248 ft 402 kts 66°
2026-04-30 13:48 54.19312 22.37164 32588 ft 399 kts 66°
2026-04-30 13:49 54.20081 22.41702 31905 ft 397 kts 66°
2026-04-30 13:49 54.20846 22.46226 31207 ft 395 kts 66°
2026-04-30 13:49 54.21605 22.50722 30502 ft 394 kts 66°
2026-04-30 13:49 54.22358 22.55197 29871 ft 389 kts 66°
2026-04-30 13:50 54.23089 22.59586 29466 ft 379 kts 66°
2026-04-30 13:50 54.24499 22.68077 28581 ft 364 kts 66°
2026-04-30 13:50 54.25192 22.72234 28144 ft 362 kts 66°
2026-04-30 13:51 54.25885 22.76378 27711 ft 363 kts 66°
2026-04-30 13:51 54.26579 22.80531 27262 ft 363 kts 66°
2026-04-30 13:51 54.27267 22.84671 26814 ft 362 kts 66°
2026-04-30 13:51 54.27953 22.88815 26376 ft 360 kts 66°
2026-04-30 13:52 54.28622 22.92876 25981 ft 359 kts 66°
2026-04-30 13:52 54.29297 22.96988 25500 ft 359 kts 66°
2026-04-30 13:52 54.29973 23.01116 25039 ft 358 kts 66°
2026-04-30 13:52 54.30643 23.05226 24589 ft 358 kts 67°
2026-04-30 13:53 54.31294 23.09330 24183 ft 357 kts 67°
2026-04-30 13:53 54.31938 23.13433 23708 ft 356 kts 68°
2026-04-30 13:53 54.32576 23.17511 23234 ft 355 kts 68°
2026-04-30 13:53 54.32999 23.20227 22929 ft 354 kts 68°
2026-04-30 13:54 54.33847 23.25670 22345 ft 352 kts 68°
2026-04-30 13:54 54.34474 23.29700 21862 ft 351 kts 68°
2026-04-30 13:54 54.35103 23.33760 21420 ft 350 kts 68°
2026-04-30 13:54 54.35727 23.37790 20975 ft 349 kts 68°
2026-04-30 13:55 54.36347 23.41807 20530 ft 348 kts 68°
2026-04-30 13:55 54.36956 23.45767 20082 ft 347 kts 69°
2026-04-30 13:55 54.37572 23.49778 19637 ft 346 kts 69°
2026-04-30 13:55 54.38183 23.53766 19190 ft 346 kts 69°
2026-04-30 13:56 54.38790 23.57739 18750 ft 345 kts 69°
2026-04-30 13:56 54.39398 23.61726 18282 ft 345 kts 70°
2026-04-30 13:56 54.40003 23.65708 17814 ft 344 kts 70°
2026-04-30 13:56 54.40606 23.69683 17370 ft 343 kts 70°
2026-04-30 13:57 54.41010 23.72353 17066 ft 342 kts 70°
2026-04-30 13:57 54.41607 23.76303 16619 ft 340 kts 70°
2026-04-30 13:57 54.42199 23.80234 16177 ft 339 kts 70°
2026-04-30 13:57 54.42787 23.84146 15723 ft 338 kts 70°
2026-04-30 13:58 54.43364 23.87994 15289 ft 336 kts 70°
2026-04-30 13:58 54.44522 23.95744 14386 ft 333 kts 70°
2026-04-30 13:58 54.45094 23.99591 13918 ft 332 kts 70°
2026-04-30 13:59 54.45661 24.03407 13459 ft 330 kts 70°
2026-04-30 13:59 54.46227 24.07225 13035 ft 329 kts 70°
2026-04-30 13:59 54.46790 24.11029 12588 ft 328 kts 70°
2026-04-30 13:59 54.47350 24.14825 12145 ft 327 kts 70°
2026-04-30 14:00 54.47906 24.18604 11697 ft 326 kts 70°
2026-04-30 14:00 54.49057 24.26410 11064 ft 345 kts 71°
2026-04-30 14:00 54.49641 24.30413 10805 ft 344 kts 71°
2026-04-30 14:01 54.50206 24.34323 10635 ft 329 kts 71°
2026-04-30 14:01 54.50744 24.38063 10406 ft 316 kts 71°
2026-04-30 14:01 54.51261 24.41659 10233 ft 302 kts 71°
2026-04-30 14:01 54.51757 24.45095 10053 ft 290 kts 71°
2026-04-30 14:02 54.52232 24.48393 9876 ft 279 kts 71°
2026-04-30 14:02 54.52699 24.51625 9495 ft 276 kts 71°
2026-04-30 14:02 54.53160 24.54819 9156 ft 274 kts 71°
2026-04-30 14:02 54.53618 24.57994 8806 ft 272 kts 71°
2026-04-30 14:03 54.54071 24.61152 8519 ft 271 kts 71°
2026-04-30 14:03 54.54522 24.64300 8238 ft 271 kts 71°
2026-04-30 14:03 54.54970 24.67448 7954 ft 270 kts 71°
2026-04-30 14:03 54.55411 24.70542 7675 ft 269 kts 72°
2026-04-30 14:04 54.55854 24.73666 7392 ft 268 kts 72°
2026-04-30 14:04 54.56295 24.76783 7099 ft 267 kts 72°
2026-04-30 14:04 54.56729 24.79859 6907 ft 259 kts 72°
2026-04-30 14:04 54.57148 24.82842 6664 ft 253 kts 72°
2026-04-30 14:05 54.57558 24.85757 6398 ft 247 kts 72°
2026-04-30 14:05 54.57957 24.88603 6138 ft 242 kts 72°
2026-04-30 14:05 54.58323 24.91444 5860 ft 245 kts 77°
2026-04-30 14:05 54.58242 24.94399 5517 ft 252 kts 102°
2026-04-30 14:06 54.57365 24.97004 5282 ft 251 kts 129°
2026-04-30 14:06 54.54954 25.01138 4783 ft 241 kts 135°
2026-04-30 14:07 54.52519 25.05163 3964 ft 242 kts 136°
2026-04-30 14:07 54.51324 25.07157 3686 ft 237 kts 136°
2026-04-30 14:07 54.50156 25.09112 3433 ft 231 kts 136°
2026-04-30 14:08 54.48131 25.13216 2942 ft 225 kts 109°
2026-04-30 14:08 54.48008 25.15838 2874 ft 220 kts 74°
2026-04-30 14:08 54.49738 25.19175 2886 ft 171 kts 21°
2026-04-30 14:09 54.50793 25.19883 2871 ft 155 kts 17°
2026-04-30 14:09 54.51779 25.20549 2876 ft 150 kts 16°
2026-04-30 14:09 54.53708 25.21865 2542 ft 148 kts 16°
2026-04-30 14:10 54.54634 25.22505 2335 ft 140 kts 17°
2026-04-30 14:10 54.55525 25.23121 2132 ft 134 kts 16°
2026-04-30 14:10 54.56374 25.23708 1935 ft 128 kts 15°
2026-04-30 14:10 54.57185 25.24267 1768 ft 124 kts 15°
2026-04-30 14:11 54.57985 25.24818 1591 ft 124 kts 18°
2026-04-30 14:11 54.58787 25.25373 1418 ft 124 kts 16°
2026-04-30 14:11 54.59587 25.25926 1227 ft 124 kts 19°
2026-04-30 14:11 54.60383 25.26478 1064 ft 123 kts 18°
2026-04-30 14:12 54.61172 25.27024 898 ft 123 kts 19°
2026-04-30 14:12 54.61961 25.27562 737 ft 120 kts 20°
2026-04-30 14:12 54.62709 25.28083 619 ft 109 kts 21°
2026-04-30 14:12 54.63094 25.28353 627 ft 67 kts 22°
2026-04-30 14:13 54.63410 25.28522 637 ft 14 kts 330°
2026-04-30 14:13 54.63476 25.28418 639 ft 12 kts 333°
2026-04-30 14:13 54.63492 25.28408 639 ft 0 kts 340°
2026-04-30 14:14 54.63494 25.28406 639 ft 1 kts 340°
2026-04-30 14:14 54.63507 25.28399 636 ft 3 kts 342°
2026-04-30 14:14 54.63530 25.28388 636 ft 4 kts 345°
2026-04-30 14:14 54.63562 25.28377 635 ft 5 kts 348°
2026-04-30 14:15 54.63603 25.28361 637 ft 7 kts 347°
2026-04-30 14:15 54.63639 25.28363 637 ft 4 kts 25°
2026-04-30 14:15 54.63645 25.28371 638 ft 0 kts 31°
2026-04-30 14:15 54.63646 25.28371 638 ft 1 kts 23°